Regional Weather Roundup
Issued by NWS

Home | Current Version | Previous Version | Graphics & Text | Print | Product List | Glossary On
Versions: 1 2 3 4 5 6 7 8 9 10 11 12 13 14 15 16 17 18 19 20 21 22 23 24 25 26 27 28 29 30 31 32 33 34 35 36 37 38 39 40 41 42 43 44 45 46 47 48 49 50
000
ASUS43 KLSX 241907
RWRMO
STLRWRMO ALL

WEATHER SUMMARY FOR MISSOURI
NATIONAL WEATHER SERVICE SPRINGFIELD MO
200 PM CDT FRI MAR 24 2017

NOTE: "FAIR" INDICATES FEW OR NO CLOUDS BELOW 12,000 FEET WITH NO
       SIGNIFICANT WEATHER AND/OR OBSTRUCTIONS TO VISIBILITY.
       CURRENT SKY AND/OR WEATHER CONDITIONS ARE NOT AVAILABLE FOR
       CHILLICOTHE AND FARMINGTON.

MOZ001>031-035>038-043-044-053-054-242000-
...NORTHERN AND WESTERN MISSOURI...

CITY           SKY/WX    TMP DP  RH WIND       PRES   REMARKS
KANSAS CTY INT CLOUDY    62  57  83 NE7       29.87S
KANSAS C DTWN  CLOUDY    67  55  65 S5        29.85S
LEE`S SUMMIT   CLOUDY    67  53  61 S15G24    29.87R
ST JOSEPH      CLOUDY    60  57  89 SE9       29.88S
CHILLICOTHE      N/A     57  56  96 CALM      29.94R
KIRKSVILLE     LGT RAIN  59  32  36 SW8       29.96R

$$
MOZ066>068-077>081-088>096-101>105-242000-
...SOUTHWEST MISSOURI...

CITY           SKY/WX    TMP DP  RH WIND       PRES   REMARKS
SPRINGFIELD    CLOUDY    68  53  58 S17       29.91F
JOPLIN         TSTM      63  57  81 S21G29    29.90R
BRANSON        CLOUDY    68  52  56 S20G29    29.97F

$$
MOZ032>034-039>042-045>050-055>058-069>072-242000-
...CENTRAL MISSOURI...

CITY           SKY/WX    TMP DP  RH WIND       PRES   REMARKS
COLUMBIA       CLOUDY    70  51  51 S13       29.93S
JEFFERSON CITY CLOUDY    74  50  42 S12       29.93S
ROLLA          CLOUDY    75  53  46 S17G28    29.96F
SEDALIA        CLOUDY    66  53  63 S20G32    29.93R
WHITEMAN AFB   CLOUDY    64  60  88 S17G26    29.88S
WARRENSBURG    CLOUDY    59  55  88 S9        29.89F
OSAGE BEACH    CLOUDY   N/A N/A N/A S16       29.95F

$$
MOZ051-052-059>065-242000-
...EAST CENTRAL MISSOURI...

CITY           SKY/WX    TMP DP  RH WIND       PRES   REMARKS
ST LOUIS INTL  PTSUNNY   79  52  38 SW21G28   29.97F
SPIRIT OF STL  CLOUDY    79  51  37 S22G30    29.95S
ST CHARLES     MOSUNNY   78  53  41 S18G24    29.94F

$$
MOZ072>076-082>087-097>100-106>115-242000-
...SOUTH CENTRAL AND SOUTHEAST MISSOURI...

CITY           SKY/WX    TMP DP  RH WIND       PRES   REMARKS
CAPE GIRARDEAU CLOUDY    72  58  61 S20G30    30.09F
FARMINGTON     MOSUNNY   75  56  51 S20G38    30.03F
POPLAR BLUFF   CLOUDY    73  59  61 S22G35    30.07F
WEST PLAINS    CLOUDY    70  54  56 S16G30    30.03F

$$




USA.gov is the U.S. government's official web portal to all federal, state and local government web resources and services.